Kelso-Longview, WA
on Thursday, January 3, 2013

Thursday
Previous Day Next Day
Daily Summary
 ActualAverage (KSPB)Record (KSPB)
Temperature
Mean Temperature °F °F  
Max Temperature 42°F °F 53°F (2003)
Min Temperature 23°F °F 19°F (2011)
Degree Days
Heating Degree Days 32    
Month to date heating degree days  
Since 1 July heating degree days  
Cooling Degree Days 0    
Month to date cooling degree days  
Year to date cooling degree days  
Moisture
Dew Point 23°F   
Average Humidity 69    
Maximum Humidity 86    
Minimum Humidity 42    
Precipitation
Precipitation 0.00 in in 0.44 in (2006)
Month to date precipitation  
Year to date precipitation  
Wind
Wind Speed 5 mph   
Max Wind Speed 18 mph   
Max Gust Speed 28 mph   
Visibility 10 miles   
Events     

Key: T is trace of precipitation, MM is missing value
Source: NWS Daily Summary
Time(PST)TemperatureDew PointHumidity Pressure Visibility Wind DirectionWind SpeedGust SpeedPrecipitationEvents Conditions
12:15 AM 26.6°F 21.2°F 80% 30.22 in 10.0 miles Calm Calm - N/A   Clear
12:35 AM 24.8°F 21.2°F 86% 30.22 in 10.0 miles WNW 3.5 mph - N/A   Clear
12:55 AM 26.6°F 21.2°F 80% 30.22 in 10.0 miles Calm Calm - N/A   Clear
1:15 AM 24.8°F 21.2°F 86% 30.21 in 10.0 miles Calm Calm - N/A   Clear
1:35 AM 26.6°F 21.2°F 80% 30.21 in 10.0 miles Calm Calm - N/A   Clear
1:55 AM 26.6°F 21.2°F 80% 30.21 in 10.0 miles WNW 3.5 mph - N/A   Clear
2:15 AM 26.6°F 21.2°F 80% 30.21 in 10.0 miles Calm Calm - N/A   Clear
2:35 AM 24.8°F 21.2°F 86% 30.20 in 10.0 miles Calm Calm - N/A   Clear
2:55 AM 24.8°F 21.2°F 86% 30.20 in 10.0 miles Calm Calm - N/A   Clear
3:15 AM 24.8°F 21.2°F 86% 30.19 in 10.0 miles NW 3.5 mph - N/A   Clear
3:35 AM 24.8°F 21.2°F 86% 30.19 in 10.0 miles NW 3.5 mph - N/A   Clear
3:55 AM 24.8°F 21.2°F 86% 30.19 in 10.0 miles Calm Calm - N/A   Clear
4:15 AM 24.8°F 21.2°F 86% 30.19 in 10.0 miles Calm Calm - N/A   Clear
4:35 AM 24.8°F 21.2°F 86% 30.18 in 10.0 miles Calm Calm - N/A   Clear
4:55 AM 24.8°F 21.2°F 86% 30.17 in 10.0 miles Calm Calm - N/A   Clear
5:15 AM 24.8°F 21.2°F 86% 30.17 in 10.0 miles Calm Calm - N/A   Clear
5:35 AM 23.0°F 19.4°F 86% 30.16 in 10.0 miles Calm Calm - N/A   Clear
5:55 AM 23.0°F 19.4°F 86% 30.17 in 10.0 miles Calm Calm - N/A   Clear
6:15 AM 23.0°F 17.6°F 80% 30.16 in 10.0 miles Calm Calm - N/A   Clear
6:35 AM 24.8°F 19.4°F 80% 30.15 in 10.0 miles Calm Calm - N/A   Clear
6:55 AM 24.8°F 19.4°F 80% 30.15 in 10.0 miles Calm Calm - N/A   Clear
7:15 AM 24.8°F 19.4°F 80% 30.16 in 10.0 miles NW 4.6 mph - N/A   Clear
7:35 AM 24.8°F 19.4°F 80% 30.15 in 10.0 miles NW 3.5 mph - N/A   Clear
7:55 AM 24.8°F 21.2°F 86% 30.15 in 10.0 miles NW 3.5 mph - N/A   Clear
8:15 AM 24.8°F 19.4°F 80% 30.15 in 10.0 miles Calm Calm - N/A   Clear
8:35 AM 24.8°F 19.4°F 80% 30.16 in 10.0 miles Calm Calm - N/A   Clear
8:55 AM 28.4°F 23.0°F 80% 30.17 in 10.0 miles Calm Calm - N/A   Clear
9:15 AM 33.8°F 23.0°F 65% 30.17 in 10.0 miles SE 4.6 mph - N/A   Clear
9:35 AM 35.6°F 21.2°F 56% 30.18 in 10.0 miles SSE 6.9 mph - N/A   Clear
9:55 AM 37.4°F 21.2°F 52% 30.18 in 10.0 miles SSE 8.1 mph - N/A   Clear
10:15 AM 37.4°F 21.2°F 52% 30.18 in 10.0 miles SSE 11.5 mph - N/A   Clear
10:35 AM 39.2°F 21.2°F 49% 30.18 in 10.0 miles SSE 9.2 mph - N/A   Clear
10:55 AM 39.2°F 21.2°F 49% 30.18 in 10.0 miles South 10.4 mph 17.3 mph N/A   Clear
11:15 AM 39.2°F 21.2°F 49% 30.17 in 10.0 miles South 11.5 mph 19.6 mph N/A   Clear
11:35 AM 41.0°F 21.2°F 45% 30.15 in 10.0 miles South 12.7 mph - N/A   Clear
11:55 AM 41.0°F 21.2°F 45% 30.15 in 10.0 miles South 15.0 mph 23.0 mph N/A   Clear
12:15 PM 42.8°F 21.2°F 42% 30.15 in 10.0 miles South 9.2 mph 17.3 mph N/A   Partly Cloudy
12:35 PM 41.0°F 21.2°F 45% 30.14 in 10.0 miles SSE 11.5 mph 18.4 mph N/A   Mostly Cloudy
12:55 PM 41.0°F 21.2°F 45% 30.14 in 10.0 miles SE 17.3 mph 20.7 mph N/A   Overcast
1:15 PM 39.2°F 21.2°F 49% 30.16 in 10.0 miles SSE 10.4 mph 17.3 mph N/A   Overcast
1:55 PM 39.2°F 23.0°F 52% 30.15 in 10.0 miles SSE 11.5 mph 18.4 mph N/A   Overcast
2:15 PM 39.2°F 23.0°F 52% 30.16 in 10.0 miles SE 6.9 mph - N/A   Overcast
2:35 PM 41.0°F 23.0°F 49% 30.14 in 10.0 miles ESE 9.2 mph - N/A   Overcast
2:55 PM 41.0°F 23.0°F 49% 30.14 in 10.0 miles SSE 10.4 mph - N/A   Overcast
3:15 PM 41.0°F 23.0°F 49% 30.14 in 10.0 miles SE 12.7 mph 18.4 mph N/A   Overcast
3:35 PM 39.2°F 23.0°F 52% 30.14 in 10.0 miles SSE 8.1 mph - N/A   Overcast
3:55 PM 39.2°F 23.0°F 52% 30.14 in 10.0 miles SSE 6.9 mph - N/A   Overcast
4:15 PM 39.2°F 23.0°F 52% 30.15 in 10.0 miles SSE 9.2 mph - N/A   Overcast
4:35 PM 39.2°F 24.8°F 56% 30.15 in 8.0 miles SE 8.1 mph - N/A   Overcast
4:55 PM 37.4°F 26.6°F 65% 30.14 in 10.0 miles East 5.8 mph - N/A   Overcast
5:15 PM 37.4°F 24.8°F 60% 30.14 in 10.0 miles SE 9.2 mph - N/A   Overcast
5:35 PM 37.4°F 24.8°F 60% 30.14 in 10.0 miles SE 6.9 mph - N/A   Overcast
5:55 PM 37.4°F 24.8°F 60% 30.15 in 10.0 miles SE 8.1 mph - N/A   Overcast
6:15 PM 37.4°F 24.8°F 60% 30.15 in 10.0 miles SE 9.2 mph - N/A   Overcast
6:35 PM 37.4°F 24.8°F 60% 30.15 in 10.0 miles SE 10.4 mph 18.4 mph N/A   Overcast
6:55 PM 37.4°F 24.8°F 60% 30.16 in 10.0 miles SE 12.7 mph 17.3 mph N/A   Overcast
7:15 PM 37.4°F 24.8°F 60% 30.16 in 10.0 miles SE 11.5 mph 18.4 mph N/A   Overcast
7:35 PM 37.4°F 26.6°F 65% 30.17 in 10.0 miles SSE 11.5 mph - N/A   Overcast
7:55 PM 37.4°F 26.6°F 65% 30.17 in 10.0 miles SE 10.4 mph - N/A   Overcast
8:15 PM 37.4°F 28.4°F 70% 30.17 in 10.0 miles SE 13.8 mph 19.6 mph N/A   Overcast
8:35 PM 35.6°F 28.4°F 75% 30.17 in 10.0 miles SE 18.4 mph 27.6 mph N/A   Overcast
8:55 PM 35.6°F 30.2°F 81% 30.17 in 10.0 miles SE 16.1 mph 25.3 mph N/A   Overcast
9:15 PM 35.6°F 30.2°F 81% 30.18 in 10.0 miles SE 15.0 mph 23.0 mph N/A   Overcast
9:35 PM 35.6°F 30.2°F 81% 30.20 in 10.0 miles SE 15.0 mph 23.0 mph N/A   Overcast
9:55 PM 35.6°F 30.2°F 81% 30.20 in 10.0 miles SE 15.0 mph 24.2 mph N/A   Overcast
10:15 PM 35.6°F 30.2°F 81% 30.21 in 10.0 miles SE 13.8 mph 24.2 mph N/A   Overcast
10:35 PM 35.6°F 30.2°F 81% 30.22 in 10.0 miles SE 13.8 mph 20.7 mph N/A   Overcast
10:55 PM 35.6°F 30.2°F 81% 30.22 in 10.0 miles SE 16.1 mph 21.9 mph N/A   Overcast
11:15 PM 35.6°F 30.2°F 81% 30.22 in 10.0 miles SE 15.0 mph 23.0 mph N/A   Overcast
11:35 PM 35.6°F 30.2°F 81% 30.22 in 10.0 miles SE 13.8 mph 23.0 mph N/A   Scattered Clouds
11:55 PM 35.6°F 30.2°F 81% 30.23 in 10.0 miles SE 15.0 mph 23.0 mph N/A   Mostly Cloudy
Moon Phase
Jan. 03 Jan. 04 Jan. 11 Jan. 18 Jan. 26
Sunrise:07:53 AM (PST) Moon Rise:11:44 PM (PST)1/3
Sunset:04:38 PM (PST) Moon Set:10:45 AM (PST)1/3

Copyright © 2014 The Weather Underground, Inc.